User: anonymous   Login
Location: Unspecified
(0.0000°N, 0.0000°E)
Time: 23:57:28
(UTC+00:00)
Language:

STARLINK-35735 - Orbit

View from above orbital plane
View from above orbital plane
View from above satellite
View from above satellite

Ground track
Ground track

The orbit is defined by the following mean orbital elements,

1 66231U          26145.63931178 +.00000000 +00000-0 +96132-3 0 00001
2 66231  53.1596 232.2829 0000707  91.9577 268.1505 15.30211214    06
Epoch (UTC): 25 May 2026 15:20:36
Eccentricity: 0.0000707
inclination: 53.1596°
perigee height: 475 km
apogee height: 476 km
right ascension of ascending node: 232.2829°
argument of perigee: 91.9577°
revolutions per day: 15.30211214
mean anomaly at epoch: 268.1505°

The dashed part of the orbit path shows where the satellite is in the earth's shadow,  

DLR